Regional Weather Roundup
Issued by NWS Raleigh/Durham, NC

Home | Current Version | Previous Version | Text Only | Print | Product List | Glossary On
Versions: 1 2 3 4 5 6 7 8 9 10 11 12 13 14 15 16 17 18 19 20 21 22 23 24 25 26 27 28 29 30 31 32 33 34 35 36 37 38 39 40 41 42 43 44 45 46 47 48 49 50
000
ASUS42 KRAH 311510
RWRRAH
NORTH CAROLINA WEATHER ROUNDUP
NATIONAL WEATHER SERVICE RALEIGH NC
1000 AM EST SAT JAN 31 2015

NOTE: "FAIR" INDICATES FEW OR NO CLOUDS BELOW 12,000 FEET WITH NO
SIGNIFICANT WEATHER AND/OR OBSTRUCTIONS TO VISIBILITY.

NCZ001-053-055-056-065-067-311600-
WESTERN NORTH CAROLINA

CITY           SKY/WX    TMP DP  RH WIND       PRES   REMARKS
ASHEVILLE      MOSUNNY   31   7  36 N10       30.33R WCI  22
JEFFERSON      SUNNY     29  -4  23 SW7       30.24R WCI  22
MORGANTON      SUNNY     30  14  51 CALM      30.39R
HICKORY        SUNNY     33  10  38 W5        30.34R WCI  29
RUTHERFORDTON  MOSUNNY   37  10  33 NW3       30.37R
MOUNT AIRY     SUNNY     34   2  25 W6        30.35S WCI  29
BOONE          SUNNY     25   2  35 W13       30.26R WCI  14
$$

NCZ021-022-025-041-071-084-088-311600-
CENTRAL NORTH CAROLINA

CITY           SKY/WX    TMP DP  RH WIND       PRES   REMARKS
CHARLOTTE      MOSUNNY   38  13  35 CALM      30.37R
GREENSBORO     PTSUNNY   34   7  32 NW8       30.34R WCI  27
WINSTON-SALEM  SUNNY     34   5  29 W5        30.36R WCI  30
RALEIGH-DURHAM PTSUNNY   33   6  32 NW7       30.37R WCI  27
FORT BRAGG     SUNNY     38   7  27 N9        30.38R WCI  31
FAYETTEVILLE   SUNNY     38   7  27 N7        30.38R WCI  33
BURLINGTON     SUNNY     34   8  33 NW8       30.36R WCI  27
LAURINBURG     SUNNY     40   7  25 N10       30.39R WCI  33
$$

NCZ011-015-027-028-043-044-047-080-103-311600-
NORTHEASTERN NORTH CAROLINA

CITY           SKY/WX    TMP DP  RH WIND       PRES   REMARKS
ROCKY MT-WILSO SUNNY     35   8  32 N12       30.37S WCI  27
GREENVILLE     SUNNY     34  10  37 N9        30.37S WCI  26
WASHINGTON     SUNNY     33  11  40 NW10      30.37R WCI  24
ELIZABETH CITY SUNNY     30   9  41 NW14      30.36R WCI  19
MANTEO         SUNNY     30   9  40 NW18G28   30.33R WCI  18
CAPE HATTERAS  SUNNY     33  13  43 N15G25    30.33R WCI  23
$$

NCZ078-087-090-091-093-098-101-311600-
SOUTHEASTERN NORTH CAROLINA

CITY           SKY/WX    TMP DP  RH WIND       PRES   REMARKS
LUMBERTON      SUNNY     39  10  30 N10       30.38R WCI  32
GOLDSBORO      SUNNY     28  14  54 NW6       30.29R WCI  22
KINSTON        SUNNY     34   9  35 N9        30.38R WCI  26
KENANSVILLE    SUNNY     35   8  32 N9G16     30.39R WCI  27
NEW BERN       SUNNY     36  11  35 NW13      30.37R WCI  27
CHERRY POINT   SUNNY     35  12  38 N14       30.37R WCI  26
BEAUFORT       SUNNY     36  15  42 N14G24    30.36R WCI  27
JACKSONVILLE   SUNNY     35  11  36 NW10      30.37R WCI  27
WILMINGTON     SUNNY     36   9  32 N13       30.39R WCI  27
$$




USA.gov is the U.S. government's official web portal to all federal, state and local government web resources and services.